Location: Edoum�
(0.9447°N, 10.6482°E)
Time: 22:37:55
(UTC+00:00)

Meteor 2-6 Rocket - Pass Details

Date: 07 June 2020
Orbit: 806 x 915 km, 81.3° (Epoch: 10 July)

Event Time Altitude Azimuth Distance (km) Brightness Sun altitude
Rises 04:05:35 0° 358° (N) 3,427 7.7 -15.9°
Reaches altitude 10° 04:08:02 10° 359° (N) 2,476 6.9 -15.3°
Maximum altitude 04:13:38 77° 85° (E) 858 4.3 -14.0°
Drops below altitude 10° 04:19:06 10° 171° (S) 2,419 6.4 -12.8°
Sets 04:21:28 0° 172° (S) 3,342 7.1 -12.3°
